| time (UTC) | temp C | wind direction | speed KPH | gust KPH | rain 1hr cm | rain 24hr cm | rain mn cm | humidity % | barometer mb |
| 20260508040005 | 6 | 0 | 0.0 | 0.0 | 0.00 | 0.00 | 0.00 | 69 | 1013.0 |
| 20260508035503 | 6 | 0 | 0.0 | 0.0 | 0.00 | 0.00 | 0.00 | 69 | 1012.9 |
| 20260508035004 | 6 | 0 | 0.0 | 0.0 | 0.00 | 0.00 | 0.00 | 68 | 1013.0 |
| 20260508034004 | 6 | 0 | 0.0 | 0.0 | 0.00 | 0.00 | 0.00 | 67 | 1012.9 |
| 20260508033504 | 6 | 0 | 0.0 | 0.0 | 0.00 | 0.00 | 0.00 | 67 | 1012.9 |
| 20260508033003 | 6 | 0 | 0.0 | 0.0 | 0.00 | 0.00 | 0.00 | 66 | 1013.0 |
| 20260508032503 | 7 | 0 | 0.0 | 0.0 | 0.00 | 0.00 | 0.00 | 65 | 1013.0 |
| 20260508032003 | 7 | 0 | 0.0 | 0.0 | 0.00 | 0.00 | 0.00 | 65 | 1013.0 |
| 20260508031503 | 7 | 0 | 0.0 | 0.0 | 0.00 | 0.00 | 0.00 | 64 | 1013.1 |
| 20260508031003 | 7 | 0 | 0.0 | 0.0 | 0.00 | 0.00 | 0.00 | 63 | 1013.1 |
| 20260508030503 | 7 | 0 | 0.0 | 0.0 | 0.00 | 0.00 | 0.00 | 62 | 1013.0 |
| 20260508030004 | 7 | 0 | 0.0 | 0.0 | 0.00 | 0.00 | 0.00 | 61 | 1013.0 |
| 20260508025503 | 7 | 140 | 0.0 | 1.6 | 0.00 | 0.00 | 0.00 | 61 | 1013.0 |
| 20260508025004 | 7 | 140 | 0.0 | 1.6 | 0.00 | 0.00 | 0.00 | 60 | 1013.1 |
| 20260508024504 | 7 | 0 | 0.0 | 0.0 | 0.00 | 0.00 | 0.00 | 60 | 1013.0 |
| 20260508024004 | 7 | 0 | 0.0 | 0.0 | 0.00 | 0.00 | 0.00 | 59 | 1013.0 |
| 20260508023504 | 8 | 0 | 0.0 | 0.0 | 0.00 | 0.00 | 0.00 | 55 | 1012.9 |
| 20260508023003 | 8 | 0 | 0.0 | 0.0 | 0.00 | 0.00 | 0.00 | 55 | 1013.0 |
| 20260508022003 | 8 | 0 | 0.0 | 0.0 | 0.00 | 0.00 | 0.00 | 53 | 1012.9 |
| 20260508021504 | 8 | 0 | 0.0 | 0.0 | 0.00 | 0.00 | 0.00 | 53 | 1013.0 |
| 20260508021004 | 8 | 0 | 0.0 | 0.0 | 0.00 | 0.00 | 0.00 | 53 | 1012.9 |
| 20260508020504 | 9 | 0 | 0.0 | 0.0 | 0.00 | 0.00 | 0.00 | 51 | 1012.8 |
| 20260508020003 | 9 | 0 | 0.0 | 0.0 | 0.00 | 0.00 | 0.00 | 50 | 1012.9 |
| 20260508015503 | 9 | 0 | 0.0 | 0.0 | 0.00 | 0.00 | 0.00 | 50 | 1012.9 |
| 20260508015003 | 10 | 0 | 0.0 | 0.0 | 0.00 | 0.00 | 0.00 | 49 | 1012.8 |
| 20260508014503 | 10 | 0 | 0.0 | 0.0 | 0.00 | 0.00 | 0.00 | 48 | 1012.9 |
| 20260508014004 | 10 | 346 | 0.0 | 1.6 | 0.00 | 0.00 | 0.00 | 47 | 1012.7 |
| 20260508013504 | 10 | 350 | 0.0 | 1.6 | 0.00 | 0.00 | 0.00 | 46 | 1012.7 |
| 20260508013004 | 10 | 354 | 0.0 | 1.6 | 0.00 | 0.00 | 0.00 | 45 | 1012.6 |
| 20260508012503 | 10 | 353 | 0.0 | 1.6 | 0.00 | 0.00 | 0.00 | 45 | 1012.7 |
| 20260508012003 | 10 | 0 | 0.0 | 0.0 | 0.00 | 0.00 | 0.00 | 43 | 1012.4 |
| 20260508011503 | 10 | 0 | 0.0 | 0.0 | 0.00 | 0.00 | 0.00 | 43 | 1012.4 |
| 20260508011003 | 11 | 0 | 0.0 | 0.0 | 0.00 | 0.00 | 0.00 | 42 | 1012.4 |
| 20260508010504 | 11 | 294 | 0.0 | 1.6 | 0.00 | 0.00 | 0.00 | 42 | 1012.5 |
| 20260508010004 | 11 | 294 | 0.0 | 1.6 | 0.00 | 0.00 | 0.00 | 41 | 1012.5 |
| 20260508005503 | 11 | 0 | 0.0 | 0.0 | 0.00 | 0.00 | 0.00 | 41 | 1012.1 |
| 20260508004503 | 11 | 0 | 0.0 | 0.0 | 0.00 | 0.00 | 0.00 | 40 | 1012.2 |
| 20260508004004 | 11 | 340 | 0.0 | 3.2 | 0.00 | 0.00 | 0.00 | 40 | 1012.2 |
| 20260508003504 | 11 | 340 | 0.0 | 3.2 | 0.00 | 0.00 | 0.00 | 40 | 1012.1 |
| 20260508003005 | 11 | 335 | 0.0 | 1.6 | 0.00 | 0.00 | 0.00 | 39 | 1011.9 |
| 20260508002504 | 11 | 309 | 0.0 | 3.2 | 0.00 | 0.00 | 0.00 | 39 | 1012.1 |
| 20260508002003 | 12 | 291 | 0.0 | 3.2 | 0.00 | 0.00 | 0.00 | 39 | 1011.9 |
| 20260508001503 | 12 | 295 | 0.0 | 3.2 | 0.00 | 0.00 | 0.00 | 39 | 1011.7 |
| 20260508001003 | 12 | 232 | 0.0 | 9.7 | 0.00 | 0.00 | 0.00 | 38 | 1011.7 |
| 20260508000504 | 12 | 228 | 0.0 | 9.7 | 0.00 | 0.00 | 0.00 | 39 | 1011.7 |
| 20260508000005 | 12 | 27 | 0.0 | 3.2 | 0.00 | 0.00 | 0.00 | 40 | 1011.6 |
| 20260507235503 | 12 | 0 | 0.0 | 0.0 | 0.00 | 0.00 | 0.00 | 42 | 1011.5 |
| 20260507234003 | 12 | 0 | 0.0 | 0.0 | 0.00 | 0.00 | 0.00 | 45 | 1011.4 |
| 20260507233503 | 12 | 303 | 0.0 | 4.8 | 0.00 | 0.00 | 0.00 | 47 | 1011.4 |
| 20260507233004 | 12 | 303 | 0.0 | 4.8 | 0.00 | 0.00 | 0.00 | 48 | 1011.4 |
| 20260507232504 | 12 | 253 | 0.0 | 12.9 | 0.00 | 0.00 | 0.00 | 48 | 1011.3 |
| 20260507232003 | 12 | 275 | 0.0 | 12.9 | 0.00 | 0.00 | 0.00 | 48 | 1011.3 |
| 20260507231003 | 12 | 0 | 0.0 | 0.0 | 0.00 | 0.00 | 0.00 | 48 | 1011.3 |
| 20260507230504 | 12 | 11 | 0.0 | 6.4 | 0.00 | 0.00 | 0.00 | 48 | 1011.4 |
| 20260507230004 | 12 | 20 | 0.0 | 6.4 | 0.00 | 0.00 | 0.00 | 48 | 1011.2 |
| 20260507225504 | 12 | 276 | 0.0 | 4.8 | 0.00 | 0.00 | 0.00 | 48 | 1011.3 |
| 20260507225004 | 12 | 265 | 0.0 | 3.2 | 0.00 | 0.00 | 0.00 | 48 | 1011.3 |
| 20260507224504 | 13 | 281 | 0.0 | 1.6 | 0.00 | 0.00 | 0.00 | 47 | 1011.2 |
| 20260507224003 | 13 | 316 | 0.0 | 1.6 | 0.00 | 0.00 | 0.00 | 47 | 1011.1 |
| 20260507223503 | 13 | 339 | 0.0 | 11.3 | 0.00 | 0.00 | 0.00 | 47 | 1011.1 |
| 20260507223003 | 12 | 351 | 1.6 | 24.1 | 0.00 | 0.00 | 0.00 | 47 | 1011.1 |
| 20260507222504 | 12 | 341 | 1.6 | 24.1 | 0.00 | 0.00 | 0.00 | 47 | 1011.1 |
| 20260507222004 | 13 | 345 | 0.0 | 17.7 | 0.00 | 0.00 | 0.00 | 46 | 1010.8 |
| 20260507221504 | 13 | 15 | 0.0 | 14.5 | 0.00 | 0.00 | 0.00 | 45 | 1010.8 |
| 20260507221004 | 13 | 252 | 0.0 | 3.2 | 0.00 | 0.00 | 0.00 | 44 | 1010.7 |
| 20260507220504 | 13 | 163 | 0.0 | 3.2 | 0.00 | 0.00 | 0.00 | 43 | 1010.6 |
| 20260507220003 | 13 | 115 | 0.0 | 1.6 | 0.00 | 0.00 | 0.00 | 42 | 1010.6 |
| 20260507215503 | 13 | 0 | 0.0 | 0.0 | 0.00 | 0.00 | 0.00 | 41 | 1010.6 |
| 20260507215003 | 13 | 264 | 0.0 | 8.0 | 0.00 | 0.00 | 0.00 | 41 | 1010.4 |
| 20260507214503 | 13 | 264 | 0.0 | 8.0 | 0.00 | 0.00 | 0.00 | 40 | 1010.4 |
| 20260507214004 | 13 | 0 | 0.0 | 0.0 | 0.00 | 0.00 | 0.00 | 40 | 1010.3 |
| 20260507213504 | 14 | 247 | 0.0 | 1.6 | 0.00 | 0.00 | 0.00 | 41 | 1010.2 |
| 20260507213003 | 14 | 247 | 0.0 | 1.6 | 0.00 | 0.00 | 0.00 | 40 | 1010.2 |
| 20260507212003 | 14 | 0 | 0.0 | 0.0 | 0.00 | 0.00 | 0.00 | 39 | 1010.0 |
| 20260507211504 | 14 | 0 | 0.0 | 0.0 | 0.00 | 0.00 | 0.00 | 40 | 1010.1 |
| 20260507210504 | 15 | 270 | 0.0 | 3.2 | 0.00 | 0.00 | 0.00 | 39 | 1010.0 |
| 20260507210005 | 15 | 276 | 0.0 | 9.7 | 0.00 | 0.00 | 0.00 | 39 | 1009.9 |
| 20260507205503 | 15 | 276 | 0.0 | 9.7 | 0.00 | 0.00 | 0.00 | 40 | 1010.0 |
| 20260507205003 | 15 | 0 | 0.0 | 0.0 | 0.00 | 0.00 | 0.00 | 40 | 1010.0 |
| 20260507204503 | 15 | 0 | 0.0 | 0.0 | 0.00 | 0.00 | 0.00 | 40 | 1009.9 |
| 20260507204003 | 15 | 0 | 0.0 | 0.0 | 0.00 | 0.00 | 0.00 | 40 | 1010.0 |
| 20260507203503 | 15 | 0 | 0.0 | 0.0 | 0.00 | 0.00 | 0.00 | 39 | 1010.0 |
| 20260507202504 | 14 | 244 | 0.0 | 6.4 | 0.00 | 0.00 | 0.00 | 38 | 1009.9 |
| 20260507202004 | 14 | 247 | 0.0 | 6.4 | 0.00 | 0.00 | 0.00 | 38 | 1009.9 |
| 20260507201504 | 14 | 265 | 0.0 | 1.6 | 0.00 | 0.00 | 0.00 | 40 | 1010.0 |
| 20260507201003 | 14 | 227 | 0.0 | 4.8 | 0.00 | 0.00 | 0.00 | 39 | 1010.1 |
| 20260507200503 | 14 | 263 | 0.0 | 11.3 | 0.00 | 0.00 | 0.00 | 39 | 1010.1 |
| 20260507195004 | 14 | 218 | 0.0 | 3.2 | 0.00 | 0.00 | 0.00 | 38 | 1010.2 |
| 20260507194504 | 14 | 218 | 0.0 | 3.2 | 0.00 | 0.00 | 0.00 | 38 | 1010.2 |
| 20260507194003 | 14 | 262 | 0.0 | 9.7 | 0.00 | 0.00 | 0.00 | 39 | 1010.2 |
| 20260507193503 | 14 | 265 | 0.0 | 9.7 | 0.00 | 0.00 | 0.00 | 38 | 1010.2 |
| 20260507193003 | 14 | 283 | 0.0 | 4.8 | 0.00 | 0.00 | 0.00 | 39 | 1010.2 |
| 20260507192503 | 14 | 262 | 0.0 | 3.2 | 0.00 | 0.00 | 0.00 | 39 | 1010.3 |
| 20260507192003 | 14 | 262 | 0.0 | 3.2 | 0.00 | 0.00 | 0.00 | 38 | 1010.2 |
| 20260507191504 | 14 | 326 | 0.0 | 1.6 | 0.00 | 0.00 | 0.00 | 39 | 1010.3 |
| 20260507191004 | 14 | 281 | 0.0 | 12.9 | 0.00 | 0.00 | 0.00 | 39 | 1010.4 |
| 20260507190503 | 14 | 282 | 0.0 | 12.9 | 0.00 | 0.00 | 0.00 | 38 | 1010.3 |
| 20260507190004 | 14 | 284 | 0.0 | 9.7 | 0.00 | 0.00 | 0.00 | 38 | 1010.1 |
| 20260507185503 | 14 | 272 | 0.0 | 14.5 | 0.00 | 0.00 | 0.00 | 39 | 1010.2 |
| 20260507184504 | 14 | 275 | 0.0 | 4.8 | 0.00 | 0.00 | 0.00 | 38 | 1010.2 |
| 20260507183503 | 14 | 275 | 0.0 | 4.8 | 0.00 | 0.00 | 0.00 | 39 | 1010.3 |
| 20260507183003 | 14 | 275 | 0.0 | 4.8 | 0.00 | 0.00 | 0.00 | 38 | 1010.4 |
| 20260507182504 | 15 | 0 | 0.0 | 0.0 | 0.00 | 0.00 | 0.00 | 37 | 1010.4 |
| 20260507182004 | 15 | 263 | 0.0 | 3.2 | 0.00 | 0.00 | 0.00 | 38 | 1010.4 |
| 20260507181003 | 14 | 275 | 0.0 | 16.1 | 0.00 | 0.00 | 0.00 | 39 | 1010.4 |
| 20260507180503 | 14 | 0 | 0.0 | 0.0 | 0.00 | 0.00 | 0.00 | 38 | 1010.3 |
| 20260507180004 | 15 | 272 | 0.0 | 9.7 | 0.00 | 0.00 | 0.00 | 37 | 1010.5 |
| 20260507175503 | 15 | 273 | 0.0 | 11.3 | 0.00 | 0.00 | 0.00 | 38 | 1010.4 |
| 20260507175004 | 15 | 276 | 0.0 | 11.3 | 0.00 | 0.00 | 0.00 | 38 | 1010.5 |
| 20260507174504 | 15 | 303 | 0.0 | 8.0 | 0.00 | 0.00 | 0.00 | 40 | 1010.6 |
| 20260507174004 | 14 | 267 | 1.6 | 17.7 | 0.00 | 0.00 | 0.00 | 40 | 1010.7 |
| 20260507173504 | 14 | 264 | 1.6 | 17.7 | 0.00 | 0.00 | 0.00 | 39 | 1010.7 |
| 20260507173004 | 15 | 244 | 0.0 | 8.0 | 0.00 | 0.00 | 0.00 | 38 | 1010.7 |
| 20260507172003 | 13 | 268 | 1.6 | 24.1 | 0.00 | 0.00 | 0.00 | 42 | 1010.8 |
| 20260507171503 | 13 | 268 | 1.6 | 24.1 | 0.00 | 0.00 | 0.00 | 41 | 1010.9 |
| 20260507171003 | 13 | 269 | 0.0 | 9.7 | 0.00 | 0.00 | 0.00 | 41 | 1010.9 |
| 20260507170503 | 13 | 275 | 0.0 | 9.7 | 0.00 | 0.00 | 0.00 | 42 | 1010.9 |
| 20260507170004 | 13 | 276 | 0.0 | 1.6 | 0.00 | 0.00 | 0.00 | 43 | 1010.9 |
| 20260507165504 | 13 | 278 | 0.0 | 8.0 | 0.00 | 0.00 | 0.00 | 42 | 1010.9 |
| 20260507165003 | 13 | 275 | 0.0 | 8.0 | 0.00 | 0.00 | 0.00 | 43 | 1011.0 |
| 20260507164504 | 13 | 280 | 0.0 | 4.8 | 0.00 | 0.00 | 0.00 | 43 | 1010.9 |
| 20260507164004 | 13 | 284 | 0.0 | 9.7 | 0.00 | 0.00 | 0.00 | 41 | 1010.9 |
| 20260507163503 | 13 | 282 | 0.0 | 9.7 | 0.00 | 0.00 | 0.00 | 43 | 1010.9 |
| 20260507163003 | 13 | 264 | 0.0 | 14.5 | 0.00 | 0.00 | 0.00 | 43 | 1010.9 |
| 20260507162504 | 13 | 263 | 0.0 | 14.5 | 0.00 | 0.00 | 0.00 | 43 | 1011.1 |
| 20260507162003 | 13 | 266 | 0.0 | 4.8 | 0.00 | 0.00 | 0.00 | 44 | 1011.0 |
| 20260507161503 | 13 | 249 | 0.0 | 12.9 | 0.00 | 0.00 | 0.00 | 44 | 1011.1 |
| 20260507161003 | 13 | 247 | 0.0 | 12.9 | 0.00 | 0.00 | 0.00 | 44 | 1011.0 |
| 20260507160503 | 13 | 255 | 0.0 | 3.2 | 0.00 | 0.00 | 0.00 | 44 | 1011.1 |
| 20260507155503 | 13 | 262 | 0.0 | 11.3 | 0.00 | 0.00 | 0.00 | 45 | 1011.3 |
| 20260507155003 | 13 | 270 | 0.0 | 12.9 | 0.00 | 0.00 | 0.00 | 47 | 1011.3 |
| 20260507154504 | 13 | 268 | 0.0 | 12.9 | 0.00 | 0.00 | 0.00 | 47 | 1011.3 |
| 20260507154004 | 13 | 274 | 0.0 | 16.1 | 0.00 | 0.00 | 0.00 | 45 | 1011.5 |
| 20260507153504 | 13 | 270 | 0.0 | 16.1 | 0.00 | 0.00 | 0.00 | 44 | 1011.4 |
| 20260507153003 | 13 | 266 | 0.0 | 14.5 | 0.00 | 0.00 | 0.00 | 44 | 1011.4 |
| 20260507152503 | 12 | 279 | 0.0 | 1.6 | 0.00 | 0.00 | 0.00 | 46 | 1011.4 |
| 20260507152003 | 12 | 279 | 0.0 | 1.6 | 0.00 | 0.00 | 0.00 | 46 | 1011.5 |
| 20260507151504 | 12 | 0 | 0.0 | 0.0 | 0.00 | 0.00 | 0.00 | 47 | 1011.5 |
| 20260507151003 | 13 | 0 | 0.0 | 0.0 | 0.00 | 0.00 | 0.00 | 44 | 1011.5 |
| 20260507150504 | 13 | 0 | 0.0 | 0.0 | 0.00 | 0.00 | 0.00 | 47 | 1011.6 |
| 20260507150004 | 13 | 0 | 0.0 | 0.0 | 0.00 | 0.00 | 0.00 | 46 | 1011.7 |
| 20260507145503 | 12 | 288 | 0.0 | 1.6 | 0.00 | 0.00 | 0.00 | 48 | 1011.8 |
| 20260507145003 | 12 | 277 | 0.0 | 9.7 | 0.00 | 0.00 | 0.00 | 49 | 1011.8 |
| 20260507144504 | 12 | 277 | 0.0 | 9.7 | 0.00 | 0.00 | 0.00 | 49 | 1011.7 |
| 20260507144004 | 12 | 198 | 0.0 | 3.2 | 0.00 | 0.00 | 0.00 | 49 | 1011.8 |
| 20260507143004 | 12 | 256 | 0.0 | 9.7 | 0.00 | 0.00 | 0.00 | 53 | 1011.8 |
| 20260507142003 | 12 | 217 | 0.0 | 1.6 | 0.00 | 0.00 | 0.00 | 52 | 1011.9 |
| 20260507141503 | 12 | 217 | 0.0 | 1.6 | 0.00 | 0.00 | 0.00 | 53 | 1012.1 |
| 20260507141004 | 12 | 217 | 0.0 | 1.6 | 0.00 | 0.00 | 0.00 | 54 | 1012.3 |
| 20260507140504 | 12 | 0 | 0.0 | 0.0 | 0.00 | 0.00 | 0.00 | 55 | 1012.3 |
| 20260507140004 | 12 | 283 | 0.0 | 4.8 | 0.00 | 0.00 | 0.00 | 56 | 1012.4 |
| 20260507135504 | 12 | 283 | 0.0 | 4.8 | 0.00 | 0.00 | 0.00 | 57 | 1012.5 |
| 20260507135004 | 12 | 284 | 0.0 | 1.6 | 0.00 | 0.00 | 0.00 | 58 | 1012.4 |
| 20260507134503 | 11 | 284 | 0.0 | 1.6 | 0.00 | 0.00 | 0.00 | 58 | 1012.4 |
| 20260507134003 | 11 | 0 | 0.0 | 0.0 | 0.00 | 0.00 | 0.00 | 58 | 1012.5 |
| 20260507133503 | 11 | 0 | 0.0 | 0.0 | 0.00 | 0.00 | 0.00 | 59 | 1012.6 |
| 20260507132503 | 11 | 0 | 0.0 | 0.0 | 0.00 | 0.00 | 0.00 | 59 | 1012.6 |
| 20260507132004 | 11 | 0 | 0.0 | 0.0 | 0.00 | 0.00 | 0.00 | 59 | 1012.8 |
| 20260507131004 | 11 | 0 | 0.0 | 0.0 | 0.00 | 0.00 | 0.00 | 60 | 1012.7 |
| 20260507130504 | 11 | 0 | 0.0 | 0.0 | 0.00 | 0.00 | 0.00 | 62 | 1012.6 |
| 20260507130004 | 11 | 176 | 0.0 | 1.6 | 0.00 | 0.00 | 0.00 | 64 | 1012.7 |
| 20260507125503 | 11 | 176 | 0.0 | 1.6 | 0.00 | 0.00 | 0.00 | 62 | 1012.7 |
| 20260507125003 | 11 | 0 | 0.0 | 0.0 | 0.00 | 0.00 | 0.00 | 67 | 1012.8 |
| 20260507124504 | 10 | 0 | 0.0 | 0.0 | 0.00 | 0.00 | 0.00 | 67 | 1012.7 |
| 20260507123003 | 10 | 0 | 0.0 | 0.0 | 0.00 | 0.00 | 0.00 | 73 | 1012.8 |
| 20260507122504 | 8 | 0 | 0.0 | 0.0 | 0.00 | 0.00 | 0.00 | 75 | 1012.8 |
| 20260507122004 | 8 | 0 | 0.0 | 0.0 | 0.00 | 0.00 | 0.00 | 79 | 1012.9 |
| 20260507121504 | 7 | 0 | 0.0 | 0.0 | 0.00 | 0.03 | 0.00 | 82 | 1012.9 |
| 20260507121003 | 6 | 0 | 0.0 | 0.0 | 0.00 | 0.03 | 0.00 | 83 | 1012.9 |
| 20260507120503 | 6 | 0 | 0.0 | 0.0 | 0.00 | 0.03 | 0.00 | 85 | 1012.9 |
| 20260507115504 | 5 | 0 | 0.0 | 0.0 | 0.00 | 0.03 | 0.00 | 87 | 1012.9 |
| 20260507114504 | 5 | 0 | 0.0 | 0.0 | 0.00 | 0.03 | 0.00 | 89 | 1013.0 |
| 20260507114003 | 5 | 0 | 0.0 | 0.0 | 0.00 | 0.03 | 0.00 | 89 | 1013.0 |
| 20260507113503 | 4 | 0 | 0.0 | 0.0 | 0.00 | 0.03 | 0.00 | 90 | 1012.9 |
| 20260507113004 | 4 | 0 | 0.0 | 0.0 | 0.00 | 0.03 | 0.00 | 90 | 1012.9 |
| 20260507112503 | 4 | 0 | 0.0 | 0.0 | 0.00 | 0.03 | 0.00 | 90 | 1013.0 |
| 20260507112003 | 4 | 0 | 0.0 | 0.0 | 0.00 | 0.03 | 0.00 | 90 | 1012.9 |
| 20260507110504 | 3 | 0 | 0.0 | 0.0 | 0.00 | 0.03 | 0.00 | 90 | 1012.7 |
| 20260507110004 | 3 | 0 | 0.0 | 0.0 | 0.00 | 0.03 | 0.00 | 90 | 1012.7 |
| 20260507105503 | 3 | 0 | 0.0 | 0.0 | 0.00 | 0.03 | 0.00 | 90 | 1012.8 |
| 20260507105004 | 3 | 0 | 0.0 | 0.0 | 0.00 | 0.05 | 0.00 | 90 | 1012.8 |
| 20260507104004 | 3 | 0 | 0.0 | 0.0 | 0.00 | 0.05 | 0.00 | 91 | 1012.6 |
| 20260507103504 | 3 | 0 | 0.0 | 0.0 | 0.00 | 0.08 | 0.00 | 91 | 1012.7 |
| 20260507103004 | 3 | 0 | 0.0 | 0.0 | 0.00 | 0.08 | 0.00 | 91 | 1012.6 |
| 20260507102503 | 3 | 0 | 0.0 | 0.0 | 0.00 | 0.10 | 0.00 | 91 | 1012.5 |
| 20260507102003 | 3 | 0 | 0.0 | 0.0 | 0.00 | 0.13 | 0.00 | 91 | 1012.5 |
| 20260507101003 | 3 | 0 | 0.0 | 0.0 | 0.00 | 0.20 | 0.00 | 91 | 1012.4 |
| 20260507100503 | 3 | 0 | 0.0 | 0.0 | 0.00 | 0.23 | 0.00 | 91 | 1012.3 |
| 20260507095504 | 3 | 0 | 0.0 | 0.0 | 0.00 | 0.30 | 0.00 | 91 | 1012.4 |
| 20260507095004 | 3 | 0 | 0.0 | 0.0 | 0.00 | 0.33 | 0.00 | 90 | 1012.4 |
| 20260507094504 | 3 | 0 | 0.0 | 0.0 | 0.00 | 0.36 | 0.00 | 90 | 1012.4 |
| 20260507094004 | 3 | 0 | 0.0 | 0.0 | 0.00 | 0.38 | 0.00 | 90 | 1012.4 |
| 20260507093504 | 3 | 0 | 0.0 | 0.0 | 0.00 | 0.41 | 0.00 | 90 | 1012.4 |
| 20260507093004 | 3 | 0 | 0.0 | 0.0 | 0.00 | 0.43 | 0.00 | 90 | 1012.4 |
| 20260507092003 | 3 | 0 | 0.0 | 0.0 | 0.00 | 0.46 | 0.00 | 90 | 1012.3 |
| 20260507091003 | 3 | 0 | 0.0 | 0.0 | 0.00 | 0.46 | 0.00 | 90 | 1012.5 |
| 20260507090503 | 3 | 0 | 0.0 | 0.0 | 0.00 | 0.48 | 0.00 | 89 | 1012.5 |
| 20260507090004 | 3 | 0 | 0.0 | 0.0 | 0.00 | 0.48 | 0.00 | 89 | 1012.5 |
| 20260507085503 | 3 | 0 | 0.0 | 0.0 | 0.00 | 0.48 | 0.00 | 89 | 1012.6 |
| 20260507085003 | 3 | 0 | 0.0 | 0.0 | 0.00 | 0.48 | 0.00 | 89 | 1012.5 |
| 20260507084503 | 3 | 0 | 0.0 | 0.0 | 0.00 | 0.51 | 0.00 | 89 | 1012.5 |
| 20260507083504 | 3 | 0 | 0.0 | 0.0 | 0.00 | 0.56 | 0.00 | 88 | 1012.7 |
| 20260507083004 | 3 | 0 | 0.0 | 0.0 | 0.00 | 0.58 | 0.00 | 88 | 1012.6 |
| 20260507082004 | 4 | 0 | 0.0 | 0.0 | 0.00 | 0.64 | 0.00 | 87 | 1012.7 |
| 20260507081003 | 4 | 0 | 0.0 | 0.0 | 0.00 | 0.71 | 0.00 | 87 | 1012.6 |
| 20260507080503 | 4 | 0 | 0.0 | 0.0 | 0.00 | 0.74 | 0.00 | 86 | 1012.5 |
| 20260507080003 | 4 | 0 | 0.0 | 0.0 | 0.00 | 0.76 | 0.00 | 86 | 1012.7 |
| 20260507075503 | 4 | 0 | 0.0 | 0.0 | 0.00 | 0.79 | 0.00 | 86 | 1012.8 |
| 20260507075003 | 4 | 0 | 0.0 | 0.0 | 0.00 | 0.79 | 0.00 | 86 | 1012.9 |
| 20260507074003 | 5 | 0 | 0.0 | 0.0 | 0.00 | 0.84 | 0.00 | 85 | 1012.8 |
| 20260507073503 | 5 | 0 | 0.0 | 0.0 | 0.00 | 0.84 | 0.00 | 85 | 1012.7 |
| 20260507072503 | 5 | 0 | 0.0 | 0.0 | 0.00 | 0.89 | 0.00 | 84 | 1012.7 |
| 20260507072003 | 5 | 0 | 0.0 | 0.0 | 0.00 | 0.91 | 0.00 | 84 | 1012.7 |
| 20260507071504 | 5 | 0 | 0.0 | 0.0 | 0.00 | 0.94 | 0.00 | 83 | 1012.9 |
| 20260507071003 | 5 | 0 | 0.0 | 0.0 | 0.00 | 0.94 | 0.00 | 83 | 1012.8 |
| 20260507070504 | 5 | 0 | 0.0 | 0.0 | 0.00 | 0.97 | 0.00 | 83 | 1012.7 |
| 20260507070007 | 5 | 0 | 0.0 | 0.0 | 0.00 | 0.97 | 0.00 | 83 | 1012.8 |
| 20260507065503 | 5 | 0 | 0.0 | 0.0 | 0.00 | 0.99 | 0.00 | 82 | 1012.9 |
| 20260507065003 | 5 | 0 | 0.0 | 0.0 | 0.00 | 0.99 | 0.00 | 82 | 1012.9 |
| 20260507064504 | 5 | 0 | 0.0 | 0.0 | 0.00 | 1.02 | 0.00 | 82 | 1012.9 |
| 20260507064004 | 5 | 0 | 0.0 | 0.0 | 0.00 | 1.04 | 0.00 | 82 | 1012.9 |
| 20260507063504 | 5 | 0 | 0.0 | 0.0 | 0.00 | 1.07 | 0.00 | 81 | 1013.1 |
| 20260507063003 | 5 | 0 | 0.0 | 0.0 | 0.00 | 1.09 | 0.00 | 80 | 1013.2 |
| 20260507062504 | 5 | 0 | 0.0 | 0.0 | 0.00 | 1.12 | 0.00 | 79 | 1013.1 |
| 20260507062004 | 6 | 0 | 0.0 | 0.0 | 0.00 | 1.14 | 0.00 | 78 | 1013.1 |
| 20260507061503 | 6 | 0 | 0.0 | 0.0 | 0.00 | 1.14 | 0.00 | 76 | 1013.2 |
| 20260507061004 | 6 | 0 | 0.0 | 0.0 | 0.00 | 1.17 | 0.00 | 75 | 1013.2 |
| 20260507060504 | 6 | 0 | 0.0 | 0.0 | 0.00 | 1.17 | 0.00 | 75 | 1013.2 |
| 20260507060004 | 6 | 0 | 0.0 | 0.0 | 0.00 | 1.19 | 0.00 | 74 | 1013.3 |
| 20260507055504 | 6 | 0 | 0.0 | 0.0 | 0.00 | 1.19 | 0.00 | 72 | 1013.3 |
| 20260507055004 | 6 | 0 | 0.0 | 0.0 | 0.00 | 1.22 | 0.00 | 73 | 1013.1 |
| 20260507054504 | 6 | 0 | 0.0 | 0.0 | 0.00 | 1.22 | 0.00 | 72 | 1013.4 |
| 20260507054004 | 6 | 0 | 0.0 | 0.0 | 0.00 | 1.24 | 0.00 | 73 | 1013.4 |
| 20260507053504 | 7 | 0 | 0.0 | 0.0 | 0.00 | 1.24 | 0.00 | 72 | 1013.4 |
| 20260507053004 | 7 | 0 | 0.0 | 0.0 | 0.00 | 1.24 | 0.00 | 71 | 1013.4 |
| 20260507052504 | 7 | 0 | 0.0 | 0.0 | 0.00 | 1.27 | 0.00 | 71 | 1013.5 |
| 20260507052003 | 7 | 0 | 0.0 | 0.0 | 0.00 | 1.32 | 0.00 | 70 | 1013.4 |
| 20260507051003 | 7 | 0 | 0.0 | 0.0 | 0.00 | 1.35 | 0.00 | 69 | 1013.3 |
| 20260507050503 | 7 | 0 | 0.0 | 0.0 | 0.00 | 1.37 | 0.00 | 68 | 1013.3 |
| 20260507050003 | 7 | 0 | 0.0 | 0.0 | 0.00 | 1.37 | 0.00 | 68 | 1013.5 |
| 20260507045503 | 7 | 0 | 0.0 | 0.0 | 0.00 | 1.37 | 0.00 | 66 | 1013.5 |
| 20260507045003 | 7 | 0 | 0.0 | 0.0 | 0.00 | 1.40 | 0.00 | 66 | 1013.4 |
| 20260507044503 | 7 | 0 | 0.0 | 0.0 | 0.00 | 1.40 | 0.00 | 64 | 1013.4 |
| 20260507044004 | 7 | 0 | 0.0 | 0.0 | 0.00 | 1.40 | 0.00 | 63 | 1013.6 |
| 20260507043504 | 8 | 0 | 0.0 | 0.0 | 0.00 | 1.42 | 0.00 | 63 | 1013.6 |
| 20260507043004 | 8 | 0 | 0.0 | 0.0 | 0.00 | 1.42 | 0.00 | 62 | 1013.7 |
| 20260507042003 | 8 | 0 | 0.0 | 0.0 | 0.00 | 1.45 | 0.00 | 63 | 1013.7 |
| 20260507041503 | 8 | 0 | 0.0 | 0.0 | 0.00 | 1.47 | 0.00 | 63 | 1013.7 |